sat.trackr.live / text

‹ back to catalog

2024-092F

NORAD 59778 · 2024-092F

PAYLOAD ACTIVE UNKNOWN

§ Identity

Operator
Country
CIS
Launch date
2024-05-16
Launch site
PLMSC
Launch vehicle
Mass (kg)
RCS (m²)

External: N2YO · Heavens-Above · Gunter

§ Orbital elements

Epoch: 2026-05-24T21:49:21.671040Z

Period
93.71 min
Inclination
97.6539°
Eccentricity
0.0007138
Mean motion
15.36616898 rev/d
Perigee alt
451.2 km
Apogee alt
461.0 km
Semi-major
6,834.3 km
B*
4.9995e-4
RAAN
277.3031°
Arg perigee
223.8680°
Mean anomaly
136.1997°
Rev number
11,219

§ Raw data

2024-092F1 59778U 24092F   26144.90927860  .00017822  00000+0  49995-3 0  99992 59778  97.6539 277.3031 0007138 223.8680 136.1997 15.36616898112191

JSON: /api/v1/satellites/59778 · /tle

For live sub-satellite position, see the globe view (requires WebGL).

§ Visibility from observer

Set your observer location to see the next 7 days of passes ≥ 10°. The values pass through the URL so the page stays shareable.

No JS? Fill the form by hand. The geolocation button needs JavaScript.

§ Radio — SatNOGS DB

ModeDescriptionDownlinkUplink
FSK Telemetry 401.215 MHz

1 transmitter · refreshed weekly from db.satnogs.org